Benton Harbor, MI

10:56 PM EDT on April 24, 2017 (GMT -0400)
Southwest Michigan Regional

Weather History for KBEH - October, 2013

Change the Weather History Date:

Wednesday, October 9, 2013

  Actual Average Record
Temperature  
Mean Temperature 56 °F -  
Max Temperature 71 °F 65 °F 82 °F (1949)
Min Temperature 43 °F 43 °F 19 °F (1989)
Degree Days  
Heating Degree Days 8    
Growing Degree Days 6 (Base 50)    
Moisture  
Dew Point 47 °F    
Average Humidity 75    
Maximum Humidity 100    
Minimum Humidity 42    
Precipitation  
Precipitation 0.00 in - - ()
Sea Level Pressure  
Sea Level Pressure 30.22 in    
Wind  
Wind Speed 5 mph (SE)    
Max Wind Speed 8 mph    
Max Gust Speed -    
Visibility 10 miles    
Events      
Averages and records for this station are not official NWS values.
T = Trace of Precipitation, MM = Missing Value Source: NWS Daily Summary

Daily Weather History Graph

Daily Weather History Graph

Search for Another Location

Airport or City:

Trip Planner

Search our weather history database for the weather conditions in past years. The results will help you decide how hot, cold, wet, or windy it might be!

Date:

Astronomy

Oct. 09, 2013 Rise Set
Actual Time 7:51 AM EDT 7:13 PM EDT
Civil Twilight 7:23 AM EDT 7:41 PM EDT
Nautical Twilight 6:51 AM EDT 8:13 PM EDT
Astronomical Twilight 6:18 AM EDT 8:46 PM EDT
Moon 12:50 PM EDT (10/9) 10:43 PM EDT (10/9)
Length of Visible Light 12h 17m
Length of Day
11h 21m
Waxing Crescent, 25% of the Moon is Illuminated
Oct 9
Waxing Crescent
Oct 11
First Quarter
Oct 18
Full
Oct 26
Last Quarter
Nov 3
New

Hourly Weather History & Observations

Time (EDT) Temp. Dew Point Humidity Pressure Visibility Wind Dir Wind Speed Gust Speed Precip Events Conditions
12:53 AM 54.0 °F 46.9 °F 77% 30.20 in 10.0 mi SE 6.9 mph - N/A   Clear
1:53 AM 53.1 °F 46.9 °F 80% 30.20 in 10.0 mi SE 6.9 mph - N/A   Clear
2:53 AM 52.0 °F 45.0 °F 77% 30.21 in 10.0 mi SE 6.9 mph - N/A   Clear
3:53 AM 51.1 °F 44.1 °F 77% 30.21 in 10.0 mi SE 8.1 mph - N/A   Clear
4:53 AM 50.0 °F 44.1 °F 80% 30.22 in 10.0 mi SE 6.9 mph - N/A   Clear
5:53 AM 48.9 °F 43.0 °F 80% 30.25 in 10.0 mi SE 4.6 mph - N/A   Clear
6:53 AM 46.9 °F 42.1 °F 83% 30.26 in 10.0 mi SE 3.5 mph - N/A   Clear
7:53 AM 43.0 °F 42.1 °F 97% 30.27 in 10.0 mi Calm Calm - N/A   Clear
8:53 AM 46.0 °F 45.0 °F 96% 30.29 in 10.0 mi Calm Calm - N/A   Clear
9:53 AM 55.0 °F 46.0 °F 72% 30.29 in 10.0 mi SE 3.5 mph - N/A   Clear
10:53 AM 60.1 °F 48.0 °F 64% 30.28 in 10.0 mi SSE 5.8 mph - N/A   Clear
11:53 AM 63.0 °F 46.0 °F 54% 30.28 in 10.0 mi SSE 5.8 mph - N/A   Clear
12:53 PM 66.0 °F 48.0 °F 52% 30.26 in 10.0 mi SSE 5.8 mph - N/A   Clear
1:53 PM 69.1 °F 46.0 °F 44% 30.24 in 10.0 mi Variable 5.8 mph - N/A   Clear
2:53 PM 70.0 °F 46.0 °F 42% 30.22 in 10.0 mi South 5.8 mph - N/A   Clear
3:53 PM 66.9 °F 51.1 °F 57% 30.21 in 10.0 mi Variable 3.5 mph - N/A   Clear
4:53 PM 66.0 °F 52.0 °F 60% 30.19 in 10.0 mi NW 4.6 mph - N/A   Clear
5:53 PM 64.9 °F 52.0 °F 63% 30.18 in 10.0 mi NNW 4.6 mph - N/A   Clear
6:53 PM 61.0 °F 54.0 °F 78% 30.18 in 10.0 mi Calm Calm - N/A   Clear
7:53 PM 55.0 °F 53.1 °F 93% 30.18 in 10.0 mi Calm Calm - N/A   Clear
8:53 PM 50.0 °F 50.0 °F 100% 30.18 in 5.0 mi Calm Calm - N/A   Clear
9:53 PM 50.0 °F 48.9 °F 96% 30.19 in 9.0 mi Calm Calm - N/A   Clear
10:53 PM 48.0 °F 46.9 °F 96% 30.19 in 8.0 mi Calm Calm - N/A   Clear
11:53 PM 50.0 °F 44.1 °F 80% 30.19 in 10.0 mi East 4.6 mph - N/A   Clear